Wetbulb
48.47 48.92 48.50 48.26 48.34 48.26 46.65 41.63 35.81 50.25 52.46 41.24 42.17 38.21 44.17 45.51 46.59 48.17 46.04 48.50 46.21 44.64 44.81 45.39 45.27 43.74 46.60 49.80 50.85 47.63 50.93 49.62 44.84 46.29 48.40 49.75 50.35 49.22 49.57 44.46 42.34 45.85 43.69 43.55
47.84 48.36 48.21 47.96 48.34 47.88 45.42 37.23 39.93 49.22 49.13 37.09 38.01 41.57 43.09 46.72 44.70 44.11 46.28 47.56 48.23 47.94 45.42 44.90 47.44 47.25 50.07 50.66 51.13 50.56 51.77 48.59 42.94 43.90 46.85 48.76 47.86 47.58 48.56 49.49 48.34 42.63 40.63 42.67
47.47 48.04 47.90 47.88 48.28 47.82 46.38 37.38 35.69 42.24 41.66 45.69 41.15 38.77 40.92 42.63 47.67 46.37 45.61 43.91 50.59 48.40 46.39 50.07 47.62 48.48 49.97 52.13 52.52 47.52 52.52 49.12 46.58 42.58 45.21 48.55 45.74 46.47 47.14 47.04 44.14 43.83 44.33 42.28
47.41 47.79 47.75 47.71 48.25 47.36 44.72 36.92 35.99 41.78 34.86 38.73 41.39 41.76 42.98 41.50 42.32 45.80 44.90 46.51 48.55 47.58 45.39 48.06 47.59 49.69 50.09 51.44 47.53 51.55 53.77 46.39 47.10 46.44 47.03 48.11 47.16 46.08 46.11 45.15 45.75 42.91 44.98 44.22
47.33 47.84 47.63 47.51 47.32 46.45 41.07 34.69 37.25 43.63 43.61 42.89 41.13 40.38 40.11 41.84 43.70 44.58 43.68 44.07 49.61 49.60 47.72 48.90 47.17 49.77 50.08 49.35 50.92 50.57 50.59 45.10 47.66 44.12 47.15 47.25 45.12 46.68 47.04 46.73 46.82 46.78 46.95 45.07
47.20 47.58 47.21 47.11 46.21 45.43 40.10 41.93 42.11 39.09 42.56 41.89 39.99 40.69 40.72 41.79 44.74 44.98 45.71 46.44 49.19 49.55 50.56 53.83 54.63 55.26 54.76 53.93 51.32 49.77 49.93 47.59 46.52 40.55 46.12 45.95 42.39 45.31 45.90 46.67 47.71 48.10 44.22 47.23
47.22 47.04 46.86 46.50 46.03 45.27 44.51 42.51 38.11 37.71 39.01 42.31 41.36 41.30 43.49 41.86 43.30 42.65 45.44 48.02 49.75 52.21 56.34 56.66 56.30 55.16 53.90 53.56 51.72 53.12 49.76 48.37 47.19 42.25 43.59 37.22 44.54 48.12 48.70 47.55 48.43 49.01 49.09 48.17
47.01 46.53 46.74 46.61 46.19 45.72 44.43 43.30 37.81 38.53 37.02 42.95 42.63 42.28 42.09 44.17 44.83 43.89 44.52 48.29 54.06 55.55 55.68 51.50 48.47 48.61 49.22 48.20 49.71 50.32 52.34 49.52 43.92 41.00 41.97 42.01 43.68 46.46 47.20 46.25 44.94 49.70 48.43 48.82
46.15 46.29 46.24 46.40 45.90 45.49 45.47 44.39 44.21 40.08 38.04 41.26 45.45 42.79 43.61 41.98 42.50 43.67 46.63 53.53 55.16 53.18 53.04 49.74 44.99 43.02 45.74 44.18 45.30 49.90 51.04 52.20 47.49 44.21 39.07 36.38 46.27 49.48 52.45 51.28 41.93 49.61 49.85 47.54
46.10 46.17 46.26 46.54 46.00 45.54 45.30 44.19 45.74 41.98 38.81 41.28 47.32 44.00 42.63 45.51 45.71 45.59 50.19 49.55 50.06 52.76 50.67 47.14 45.60 43.70 47.32 43.69 43.66 44.17 46.41 47.22 44.58 43.03 42.46 43.95 48.72 50.83 51.64 41.79 45.10 50.11 50.16 48.90
46.35 46.24 46.45 46.37 46.35 45.42 44.52 44.10 45.85 43.27 40.53 41.52 46.27 49.41 49.88 46.42 48.11 46.45 51.19 49.39 50.28 50.59 48.98 48.02 47.19 46.16 46.71 45.27 46.69 46.29 45.38 44.64 44.41 44.78 42.43 40.92 50.48 49.42 45.82 50.46 52.44 51.20 51.19 50.77
46.23 46.42 46.33 46.11 45.88 45.77 46.37 41.79 47.43 49.29 43.17 42.88 48.00 47.79 49.65 49.75 51.09 51.65 51.86 51.30 51.88 54.14 50.22 50.42 48.30 45.69 47.03 46.51 42.53 47.37 45.04 49.25 46.72 47.72 47.62 50.69 52.54 52.52 52.55 53.95 51.78 51.63 51.35 50.77
46.34 46.25 46.11 45.63 45.86 46.25 46.48 44.05 47.41 46.85 42.91 42.52 45.28 48.83 54.56 54.63 53.79 57.50 50.26 53.52 52.04 52.43 54.88 52.19 50.15 46.88 49.39 45.20 45.81 47.43 48.35 50.11 48.98 49.16 48.00 49.13 49.98 50.90 52.46 53.75 52.41 52.47 51.55 48.96
46.14 45.67 45.37 45.70 45.65 46.21 46.60 43.93 47.24 48.48 44.99 39.47 47.20 55.77 54.27 57.72 57.30 55.92 56.52 55.21 55.45 55.07 56.06 53.42 52.08 48.17 49.71 49.27 49.56 49.00 50.50 51.01 48.76 46.14 47.82 48.38 48.58 51.08 51.90 51.72 52.11 50.59 50.02 49.12
45.42 45.51 45.51 45.22 45.67 46.30 46.53 45.70 49.02 51.12 43.74 37.61 41.88 52.08 55.35 55.24 55.63 54.91 55.50 55.16 54.09 54.64 54.68 55.07 50.54 51.48 51.44 51.52 51.86 49.17 51.30 49.65 48.47 47.51 50.23 52.30 49.85 49.93 51.10 49.91 49.24 49.30 48.28 47.48
45.09 45.04 44.87 44.95 45.65 45.70 44.99 40.76 47.92 49.65 47.98 39.97 38.96 54.12 52.73 53.19 54.87 54.59 54.27 54.68 54.42 55.48 54.02 52.22 52.32 50.90 53.39 50.87 48.47 51.25 52.34 53.55 53.89 51.76 53.00 53.25 50.52 50.11 50.98 49.52 49.20 49.11 48.23 47.56
44.31 44.55 44.62 45.10 45.22 44.14 43.12 42.71 46.94 47.72 48.30 39.63 39.02 49.03 52.65 53.02 53.31 53.11 52.56 53.72 53.98 54.86 52.83 51.44 52.25 51.65 53.80 52.18 47.81 51.13 51.88 52.17 52.44 51.17 49.27 46.85 48.74 47.33 49.78 49.24 48.68 47.74 48.10 47.13
44.14 44.42 44.65 44.78 45.23 45.90 44.05 49.37 48.88 48.34 44.71 43.07 41.84 48.16 49.77 52.49 50.90 50.07 52.41 52.40 54.26 51.45 51.44 52.45 51.30 50.15 51.60 48.91 50.78 50.98 50.56 50.05 49.45 50.86 53.11 50.60 49.31 48.55 48.07 48.04 47.20 45.59 44.65 43.29
43.78 43.62 44.41 45.32 43.74 40.40 43.91 48.05 48.63 49.45 46.92 40.60 43.72 46.30 44.66 52.55 50.78 51.41 51.11 53.47 48.43 52.22 50.18 50.00 50.84 48.54 47.02 49.12 50.50 49.72 49.59 49.54 48.73 49.67 49.03 47.82 46.65 46.11 46.10 46.10 45.92 44.43 42.72 41.46
43.88 42.97 41.72 34.21 42.79 48.10 48.45 46.74 42.36 43.55 44.70 43.92 44.92 50.47 47.34 51.72 50.40 48.74 50.05 49.45 46.75 46.16 47.47 50.34 49.18 47.11 47.23 50.74 53.54 52.25 51.82 50.16 49.25 46.14 44.80 45.78 44.98 44.78 45.29 45.57 46.35 44.69 42.45 41.19
41.78 39.37 38.58 45.74 48.21 45.60 41.10 33.83 34.21 38.41 40.57 46.35 49.45 50.03 47.51 51.63 48.66 46.84 48.70 46.03 46.26 42.89 45.55 46.46 44.49 44.77 47.75 52.48 52.60 52.36 51.90 50.89 50.94 51.54 49.88 48.93 47.66 46.37 45.98 45.61 44.97 43.54 42.12 40.97
44.14 44.36 46.70 45.68 41.04 35.43 32.93 32.58 35.35 38.18 43.65 47.42 48.34 49.02 50.32 49.29 51.78 48.24 46.57 42.77 44.01 40.05 46.59 44.77 41.12 46.27 50.58 51.82 51.11 50.86 51.02 50.91 51.27 50.37 48.93 48.48 47.88 47.24 46.23 44.91 43.46 42.76 42.37 37.88
46.85 41.66 37.57 38.75 34.84 32.03 31.85 32.58 34.54 38.57 45.78 47.93 48.15 46.83 49.59 48.38 49.47 45.89 45.82 40.99 40.45 45.80 43.69 41.73 45.29 47.90 49.84 51.50 50.68 50.05 51.12 51.06 49.89 49.20 48.87 48.35 47.11 47.05 45.80 42.24 41.68 37.96 32.83 32.26
36.94 33.09 31.49 34.96 32.58 36.07 36.94 39.66 41.24 42.45 45.93 49.31 49.84 46.71 48.18 48.29 44.66 45.35 41.23 42.41 44.51 40.03 37.16 40.20 47.15 47.77 49.79 50.71 50.51 49.79 49.34 49.51 48.48 47.42 46.95 45.46 42.41 36.93 36.75 35.84 34.66 32.94 31.72 32.11
35.10 34.98 32.73 35.20 38.85 40.83 42.04 42.94 41.79 41.84 48.08 48.57 46.83 46.95 47.88 44.69 42.35 44.22 41.89 38.38 38.80 41.45 41.88 46.67 48.60 49.75 49.40 49.11 49.19 49.55 49.10 48.06 47.15 46.55 43.95 40.31 39.27 38.36 35.11 36.06 38.95 36.37 31.67 31.37
36.64 36.22 34.49 36.68 38.21 38.27 40.96 40.58 40.60 46.90 47.27 48.85 49.44 44.28 43.18 40.97 43.03 40.68 39.20 39.45 38.66 42.81 46.63 46.48 48.97 49.23 49.38 49.38 49.74 49.51 48.41 48.31 47.20 46.01 43.74 43.08 41.78 40.48 39.80 41.00 39.50 32.71 33.06 31.61
34.99 36.23 38.70 38.16 40.00 39.08 38.32 39.97 46.17 49.92 46.19 46.47 46.39 41.83 39.89 42.93 40.90 39.90 42.59 41.68 44.54 45.92 45.37 46.71 50.09 49.92 49.77 49.89 49.07 48.03 47.91 47.30 47.10 45.89 45.42 44.47 44.07 42.93 41.22 39.33 36.38 37.60 35.38 32.97
MSLP
1015.03 1015.43 1016.00 1016.54 1017.12 1017.70 1018.25 1017.76 1016.11 1014.25 1014.42 1014.36 1012.39 1010.96 1008.97 1007.57 1006.15 1004.79 1003.96 1003.21 1001.91 1001.28 1001.29 1001.47 1001.50 1001.72 1001.71 1002.42 1002.93 1003.42 1003.72 1003.60 1003.82 1004.09 1005.04 1004.85 1004.28 1004.33 1004.90 1005.15 1006.51 1008.13 1009.46 1012.48
1014.24 1014.73 1015.37 1015.97 1016.52 1017.03 1017.17 1017.34 1015.70 1014.52 1013.68 1011.84 1010.61 1010.27 1009.09 1007.80 1006.43 1004.63 1003.47 1002.50 1001.80 1001.04 1000.84 1001.23 1001.49 1001.81 1002.62 1002.85 1003.01 1003.10 1003.89 1003.91 1004.00 1004.79 1005.41 1005.19 1004.71 1005.46 1005.73 1006.05 1006.87 1008.04 1009.60 1012.95
1013.41 1014.06 1014.76 1015.39 1015.96 1016.57 1016.86 1016.79 1015.09 1013.90 1013.83 1011.46 1009.88 1009.43 1008.29 1007.39 1006.30 1005.15 1004.12 1002.73 1001.54 1000.79 1000.53 1000.81 1001.46 1001.97 1003.18 1003.43 1003.45 1003.98 1003.96 1004.15 1003.59 1003.93 1004.09 1004.49 1005.43 1005.97 1006.30 1006.41 1007.00 1008.21 1010.15 1013.48
1012.62 1013.36 1014.14 1014.85 1015.40 1016.10 1016.96 1016.91 1014.55 1012.30 1012.01 1011.02 1009.66 1008.57 1007.39 1006.60 1005.82 1004.57 1003.58 1002.14 1001.23 1000.06 999.98 1000.41 1000.63 1001.74 1002.86 1003.71 1004.29 1004.33 1004.15 1004.57 1005.22 1005.45 1005.59 1005.49 1005.96 1006.48 1006.93 1007.36 1008.20 1008.90 1010.98 1013.11
1011.89 1012.64 1013.41 1014.29 1015.00 1015.75 1016.32 1016.12 1014.51 1012.04 1010.11 1010.12 1009.33 1008.01 1006.64 1005.76 1005.13 1004.59 1002.76 1002.28 1000.89 1000.09 999.58 999.47 999.94 1000.55 1001.48 1002.46 1004.08 1004.10 1004.55 1005.65 1005.69 1006.43 1006.53 1006.79 1007.10 1007.63 1008.09 1008.76 1009.41 1010.39 1011.74 1014.02
1011.27 1012.08 1012.90 1013.74 1014.58 1015.00 1015.44 1015.46 1014.61 1013.79 1009.46 1008.84 1008.22 1006.72 1006.35 1005.74 1005.22 1004.22 1003.20 1002.57 1001.66 1000.58 999.54 999.49 999.90 1000.42 1001.32 1002.12 1002.93 1003.70 1004.18 1005.19 1005.69 1007.25 1007.57 1007.75 1008.42 1008.68 1008.92 1009.68 1010.40 1011.09 1012.28 1014.43
1010.76 1011.62 1012.42 1013.26 1014.10 1014.29 1014.50 1014.71 1014.94 1013.12 1009.71 1007.72 1006.97 1006.79 1006.45 1005.66 1005.05 1004.15 1003.42 1003.11 1002.11 1001.24 1000.71 1000.66 1000.97 1001.45 1002.06 1002.85 1003.56 1003.32 1003.96 1004.86 1005.95 1007.37 1008.20 1008.50 1009.36 1009.92 1009.75 1010.30 1011.29 1012.34 1013.38 1015.45
1010.37 1011.26 1012.07 1012.87 1013.48 1013.89 1014.24 1014.66 1014.99 1013.06 1010.39 1007.84 1006.96 1006.41 1005.97 1005.69 1005.10 1004.78 1004.08 1002.82 1002.36 1001.99 1000.07 1000.39 1001.01 1001.93 1002.41 1003.62 1004.16 1003.98 1003.86 1004.50 1006.17 1007.26 1007.69 1009.04 1009.64 1009.90 1010.00 1010.31 1012.26 1013.00 1014.32 1015.97
1010.18 1010.97 1011.66 1012.29 1013.15 1013.69 1014.12 1013.91 1014.51 1013.88 1011.31 1008.25 1006.26 1005.84 1005.45 1004.93 1004.64 1004.48 1003.28 1002.84 1002.63 1002.55 1000.53 1000.08 1000.56 1001.51 1002.29 1003.58 1004.48 1004.67 1004.52 1004.41 1005.29 1007.15 1007.47 1007.85 1007.86 1009.15 1009.73 1010.35 1012.21 1013.94 1014.94 1016.67
1010.03 1010.72 1011.30 1011.82 1012.64 1013.20 1013.73 1013.61 1013.78 1013.35 1011.23 1009.11 1007.37 1005.37 1004.80 1004.87 1004.47 1003.77 1003.00 1002.84 1002.76 1002.39 1000.48 1000.07 1000.99 1002.20 1002.92 1003.18 1003.75 1004.46 1004.71 1005.04 1005.43 1006.57 1007.30 1008.14 1008.55 1009.32 1010.10 1010.48 1011.18 1013.66 1015.39 1016.89
1009.92 1010.50 1011.04 1011.59 1012.16 1012.56 1012.98 1012.73 1012.94 1012.79 1011.06 1009.42 1007.96 1006.82 1005.43 1004.80 1004.56 1003.65 1002.92 1002.81 1002.31 1001.74 1000.41 1000.62 1001.61 1002.27 1003.43 1003.96 1004.50 1004.41 1004.65 1005.19 1005.98 1006.94 1007.54 1008.41 1009.18 1010.12 1010.11 1010.91 1012.03 1013.62 1015.65 1017.25
1009.83 1010.39 1010.93 1011.39 1011.92 1012.32 1012.62 1012.44 1011.70 1011.43 1011.15 1009.23 1008.39 1007.46 1006.72 1006.21 1005.30 1004.87 1003.42 1002.27 1001.42 1000.90 1000.61 1001.11 1001.97 1002.97 1003.84 1003.97 1004.72 1005.71 1005.83 1005.47 1005.95 1007.19 1008.01 1008.95 1009.31 1009.78 1011.06 1011.41 1012.29 1014.36 1015.91 1017.97
1009.80 1010.33 1010.77 1011.28 1011.63 1011.93 1012.18 1011.94 1011.26 1010.98 1010.39 1008.87 1007.42 1005.16 1004.38 1004.87 1005.13 1005.19 1004.34 1002.69 1002.37 1001.76 1001.48 1001.23 1002.15 1003.08 1003.67 1004.01 1004.67 1005.38 1006.33 1006.70 1006.83 1007.95 1009.70 1010.14 1010.95 1011.63 1011.93 1012.35 1013.41 1015.12 1016.94 1018.71
1009.72 1010.20 1010.65 1010.99 1011.30 1011.47 1011.73 1011.62 1010.95 1010.31 1009.85 1008.85 1005.70 1004.46 1004.24 1003.85 1004.23 1004.54 1004.38 1003.81 1003.31 1002.63 1001.60 1001.41 1002.38 1003.51 1004.69 1004.64 1004.71 1005.12 1006.09 1006.76 1007.42 1009.01 1010.27 1011.22 1011.93 1012.19 1012.64 1013.60 1014.87 1016.38 1018.04 1019.24
1009.61 1010.07 1010.34 1010.79 1011.10 1011.30 1011.42 1011.31 1010.45 1010.14 1010.37 1009.18 1006.72 1004.83 1003.61 1003.69 1003.68 1003.96 1004.13 1004.06 1003.65 1002.49 1001.57 1002.17 1003.62 1004.33 1004.81 1005.41 1005.18 1005.50 1006.03 1006.55 1006.64 1007.07 1008.93 1009.29 1011.51 1013.06 1013.72 1014.31 1015.65 1017.01 1018.29 1020.16
1009.57 1009.94 1010.24 1010.54 1010.78 1010.95 1010.90 1010.47 1010.18 1010.23 1010.22 1010.06 1007.36 1003.64 1003.33 1003.36 1003.16 1003.41 1003.81 1003.72 1003.50 1002.72 1002.30 1003.53 1004.48 1005.29 1004.99 1004.85 1004.90 1005.66 1006.27 1006.76 1006.89 1007.85 1009.47 1010.33 1012.22 1013.75 1014.70 1015.30 1016.59 1017.97 1019.25 1020.65
1009.54 1009.74 1009.81 1010.13 1010.23 1010.36 1009.68 1009.54 1009.24 1009.45 1010.36 1010.27 1007.46 1003.61 1003.16 1003.25 1003.23 1003.39 1003.64 1003.77 1003.48 1002.62 1003.26 1004.19 1004.56 1005.18 1005.11 1004.91 1004.93 1006.08 1006.86 1007.60 1008.24 1009.39 1010.38 1012.59 1013.41 1014.23 1015.57 1016.55 1017.84 1019.17 1020.40 1021.71
1009.24 1009.53 1009.67 1009.58 1009.62 1009.62 1009.26 1009.17 1009.09 1009.61 1010.20 1009.77 1006.64 1003.43 1002.58 1002.91 1002.34 1002.80 1003.49 1003.04 1003.12 1003.77 1004.26 1004.92 1004.91 1005.48 1005.22 1005.15 1005.81 1006.69 1007.74 1008.69 1009.79 1010.32 1010.30 1011.69 1013.51 1015.29 1016.65 1017.73 1018.59 1019.85 1021.15 1022.59
1009.23 1009.45 1009.44 1009.17 1008.91 1008.97 1008.85 1009.31 1009.54 1009.59 1009.43 1007.73 1005.50 1002.34 1001.91 1002.26 1002.39 1002.63 1003.03 1002.99 1003.73 1004.88 1004.65 1005.22 1005.38 1005.28 1005.03 1004.79 1005.83 1006.91 1007.95 1008.43 1009.92 1011.26 1012.11 1013.45 1014.26 1015.68 1017.14 1018.07 1019.25 1020.07 1021.67 1023.19
1008.92 1009.21 1008.48 1008.06 1007.78 1007.60 1008.31 1009.02 1009.18 1008.73 1007.72 1006.76 1004.19 1002.14 1001.45 1001.55 1002.02 1002.63 1002.99 1003.65 1004.43 1004.82 1005.81 1005.82 1005.14 1005.12 1005.49 1005.53 1006.13 1007.01 1008.08 1009.12 1010.27 1011.39 1013.28 1014.26 1015.22 1016.22 1017.28 1018.27 1019.34 1020.47 1021.89 1023.62
1008.17 1007.45 1006.98 1006.71 1007.05 1007.74 1008.39 1008.63 1008.61 1006.64 1005.48 1003.97 1002.33 1001.40 1001.02 1001.92 1001.49 1002.54 1003.51 1003.94 1004.68 1004.88 1005.91 1005.49 1005.31 1004.91 1005.24 1005.92 1006.63 1007.85 1008.75 1009.46 1010.03 1010.13 1011.00 1012.61 1013.72 1015.79 1017.37 1018.86 1020.12 1021.39 1022.80 1024.21
1006.11 1005.85 1006.02 1006.82 1007.57 1008.22 1008.22 1007.22 1006.21 1004.68 1002.24 1001.76 1000.98 1000.87 1000.72 1001.65 1001.78 1002.26 1004.03 1004.45 1005.13 1005.43 1005.99 1005.48 1004.89 1004.65 1005.08 1006.09 1007.16 1008.33 1009.25 1010.09 1010.59 1011.43 1012.51 1014.15 1015.39 1016.60 1017.90 1019.37 1020.80 1022.22 1023.61 1025.42
1005.79 1005.90 1006.22 1006.27 1006.41 1006.26 1006.27 1005.00 1003.65 1002.26 1001.16 1000.75 1000.39 1000.78 1000.72 1001.85 1002.13 1003.29 1003.88 1004.66 1005.81 1006.14 1005.78 1004.66 1003.98 1004.59 1005.52 1006.37 1007.58 1008.75 1009.76 1010.62 1011.44 1012.52 1013.86 1014.86 1016.38 1017.86 1018.94 1020.41 1021.83 1023.48 1025.26 1026.60
1005.19 1005.45 1005.82 1005.09 1005.31 1004.08 1002.88 1002.63 1002.21 1002.11 1001.25 999.95 999.66 1000.53 1000.75 1001.74 1002.48 1003.57 1004.17 1005.89 1005.84 1005.63 1004.98 1003.51 1003.51 1004.63 1005.71 1006.89 1008.04 1008.91 1009.97 1011.00 1012.05 1013.18 1014.46 1015.93 1017.35 1018.89 1020.47 1021.83 1022.78 1024.09 1025.74 1027.11
1005.57 1005.02 1004.26 1003.88 1003.73 1004.01 1003.68 1003.31 1002.88 1002.41 1001.15 1000.13 1000.11 1000.44 1000.93 1002.06 1003.05 1003.85 1004.94 1005.62 1004.93 1004.12 1003.10 1002.91 1003.63 1004.89 1006.11 1007.32 1008.42 1009.29 1010.27 1011.46 1012.70 1013.89 1015.29 1016.89 1018.16 1019.49 1021.16 1022.56 1023.34 1024.72 1026.12 1027.30
1004.69 1004.31 1003.78 1003.33 1002.99 1003.52 1003.43 1003.29 1002.64 1001.79 1001.10 1000.18 999.28 1000.31 1001.34 1002.37 1002.69 1003.19 1003.47 1003.76 1003.12 1002.70 1002.95 1003.65 1004.43 1005.43 1006.55 1007.59 1008.57 1009.61 1010.76 1011.72 1012.87 1014.28 1015.71 1016.98 1018.31 1019.44 1020.88 1022.31 1023.65 1025.19 1025.99 1027.17
1004.63 1003.97 1004.02 1003.71 1003.14 1003.08 1003.81 1003.55 1002.31 1001.90 1001.19 999.37 999.46 1000.18 1001.41 1002.32 1002.22 1002.45 1002.95 1003.04 1003.11 1003.55 1004.31 1004.64 1005.08 1005.79 1006.80 1007.93 1009.05 1010.27 1011.23 1012.22 1013.29 1014.61 1016.01 1017.31 1018.60 1019.81 1020.95 1022.21 1024.04 1025.03 1026.24 1027.17
Wind_Speed
20 20 18 15 12 8 7 1 5 8 13 12 11 16 24 4 13 10 9 5 5 14 20 14 16 20 10 22 16 12 6 4 11 9 4 3 3 4 6 5 5 2 4 7
21 20 19 16 13 13 4 3 5 3 10 13 14 14 23 16 8 6 2 8 8 10 20 9 9 16 1 15 14 14 10 7 10 8 7 4 4 4 3 7 2 5 5 8
22 21 20 18 15 14 5 1 4 4 3 12 15 21 19 22 11 15 9 5 7 14 18 6 10 11 6 8 8 3 6 4 7 8 8 8 9 8 4 1 4 4 3 16
22 21 20 18 15 14 6 4 5 5 6 13 12 19 14 21 13 11 5 5 13 17 17 11 12 11 11 6 6 4 2 6 7 8 7 7 10 9 5 4 4 4 14 16
22 23 22 18 15 15 4 2 6 4 9 20 20 17 25 16 21 13 7 10 8 15 17 11 18 14 13 9 6 5 2 6 11 10 10 12 14 10 10 9 10 12 16 18
23 23 21 18 22 12 4 4 8 5 9 19 20 17 20 20 15 11 18 9 10 12 15 10 16 14 10 13 12 6 5 9 7 6 10 13 8 6 5 8 3 16 16 16
23 22 19 21 23 16 5 2 1 5 7 13 17 22 17 15 20 12 7 10 9 1 17 20 18 17 17 13 8 4 13 10 3 8 8 5 6 2 3 12 11 7 15 22
24 21 19 22 22 19 5 3 1 6 3 10 13 24 16 15 14 13 15 14 8 14 10 14 13 8 10 8 9 5 9 7 6 7 7 5 6 8 11 14 10 8 19 20
21 19 18 20 21 18 8 4 5 5 3 7 8 20 18 12 12 9 11 7 6 4 6 8 10 6 9 7 6 5 8 8 6 5 5 6 8 15 13 9 10 12 20 22
20 18 16 18 20 17 8 3 8 6 3 6 5 11 18 12 6 4 2 7 7 4 6 8 6 5 3 7 9 8 7 5 7 8 3 5 7 17 11 8 9 21 21 22
17 16 16 18 17 14 8 3 8 7 4 8 9 5 5 13 8 6 6 7 6 4 6 5 4 5 4 5 5 8 8 7 5 4 4 6 13 13 8 7 19 23 20 20
15 15 17 16 14 14 13 3 7 7 4 6 7 14 19 16 14 5 4 5 5 2 4 3 5 5 4 7 6 2 6 0 5 3 3 8 14 8 8 14 22 22 22 20
13 15 15 14 13 12 13 4 4 3 3 7 8 10 10 12 16 10 4 2 4 3 3 4 4 6 3 5 4 7 3 3 4 8 6 11 9 7 10 18 20 22 22 23
12 12 11 10 9 11 12 4 5 4 1 4 5 4 6 5 10 14 12 7 5 3 3 4 5 5 2 3 6 4 1 9 10 7 8 10 6 10 16 18 22 23 22 24
8 9 11 9 10 10 4 5 6 2 2 3 6 14 4 4 9 12 9 8 6 4 2 5 4 4 5 3 3 4 7 7 7 5 17 4 15 14 19 24 24 24 24 22
7 7 6 8 8 4 5 2 3 4 2 2 5 3 3 2 6 8 9 6 3 2 4 5 4 3 1 4 4 6 7 7 5 8 12 12 20 18 19 23 24 23 24 23
7 7 8 8 7 5 3 1 2 12 4 1 5 4 4 4 6 3 4 3 1 2 4 4 4 4 1 2 4 13 9 9 17 21 28 19 20 14 19 22 23 22 22 21
7 8 9 8 16 7 2 1 3 12 4 3 5 3 5 2 4 5 0 3 1 7 4 3 3 4 0 3 10 14 13 17 18 15 5 18 22 21 21 22 23 24 22 21
8 5 15 5 3 3 2 6 7 4 3 4 4 6 6 4 3 3 3 2 5 1 3 3 2 2 2 6 18 17 21 13 19 16 21 23 24 24 23 24 23 23 22 21
11 5 5 4 6 7 13 5 2 7 5 5 5 2 6 4 4 4 3 3 3 3 4 1 1 3 3 6 14 16 15 22 24 25 19 21 22 22 24 23 20 21 22 21
4 5 3 2 11 3 1 2 4 5 6 6 4 4 7 1 4 5 3 3 1 3 4 2 3 4 5 12 15 16 16 19 15 13 21 22 27 24 22 20 20 20 21 20
4 3 3 3 4 3 4 2 4 7 6 6 7 5 4 4 2 5 3 4 1 4 4 3 4 4 12 16 17 16 18 18 11 19 23 22 22 22 21 20 20 20 19 16
3 2 3 4 2 4 6 9 4 4 6 7 7 7 3 5 3 6 3 4 4 4 1 3 3 9 12 15 16 17 17 14 16 19 19 21 21 18 19 18 15 16 15 14
1 4 5 4 4 6 2 0 2 4 3 9 10 5 4 3 5 2 5 4 4 3 3 6 7 13 15 15 16 18 19 18 20 21 22 19 17 13 12 12 16 17 16 14
2 3 3 5 4 4 4 1 3 3 5 7 7 6 4 4 6 3 6 4 4 6 5 3 8 16 17 17 18 18 18 16 18 20 19 17 18 18 15 14 17 16 14 14
3 3 3 3 5 3 3 1 3 3 5 4 3 5 5 4 5 6 5 8 7 5 3 6 11 16 16 18 17 17 16 18 18 18 19 20 18 19 19 18 16 13 16 15
3 1 3 0 3 6 1 1 2 1 4 7 4 5 3 5 4 5 4 4 2 5 5 6 12 16 18 17 17 16 17 17 18 19 18 18 17 19 19 18 15 16 15 11
Wind_Direction
223 218 205 195 206 191 183 222 247 142 166 194 214 223 214 275 268 260 244 262 223 192 177 185 186 182 190 188 172 190 187 233 172 178 74 296 15 125 195 260 136 54 305 91
220 210 197 191 198 191 138 232 241 164 206 207 202 220 225 235 276 250 236 227 232 195 171 176 167 176 120 168 183 174 176 173 147 149 158 168 130 109 124 108 106 198 287 97
213 203 190 189 193 188 188 312 237 143 216 255 217 204 212 220 242 260 264 273 202 180 174 177 169 144 143 154 159 34 139 133 215 187 168 137 142 141 133 213 227 128 4 131
206 197 186 186 189 181 152 213 260 181 168 210 213 208 210 215 233 225 250 224 231 181 169 165 159 140 133 129 151 114 220 111 98 81 111 131 135 134 135 110 76 271 133 145
201 191 180 182 172 147 168 248 256 252 195 198 208 209 219 220 215 253 228 232 214 207 177 186 168 159 164 161 163 139 125 119 120 63 113 125 112 105 101 105 99 104 129 128
191 181 178 173 158 163 174 200 265 255 190 191 195 212 219 213 221 242 249 286 320 206 205 188 158 154 151 149 155 133 122 142 150 116 138 130 120 116 106 111 131 143 150 144
182 176 177 167 171 192 197 156 324 270 207 200 205 207 213 216 218 247 297 305 271 113 122 110 102 100 107 105 78 131 136 119 93 140 169 209 79 152 125 120 121 93 112 142
172 172 175 169 181 195 207 138 189 295 305 227 204 207 211 223 238 251 266 284 273 189 161 128 126 129 126 79 48 97 159 128 112 155 182 107 143 166 158 150 130 152 139 142
164 173 179 179 182 195 215 204 202 272 294 234 191 200 203 210 221 244 245 249 213 213 219 157 149 153 137 142 116 97 108 136 122 169 177 190 117 155 168 140 151 160 147 144
168 175 181 181 181 199 208 210 211 259 259 282 270 196 207 210 206 249 201 163 194 227 197 150 142 116 118 148 142 155 140 137 156 159 146 117 139 147 151 204 120 159 159 155
172 178 182 183 184 196 210 243 226 239 233 275 274 315 266 189 222 231 120 157 205 184 184 130 129 130 108 110 114 168 168 151 153 162 152 166 164 147 204 95 138 147 154 155
177 179 178 185 192 202 209 249 236 210 243 283 306 280 269 265 265 302 229 339 158 152 116 114 131 121 156 144 136 155 169 313 150 306 76 111 142 86 119 140 140 148 145 134
176 179 183 197 204 211 209 248 259 191 268 285 252 246 245 217 222 231 267 188 354 239 334 130 114 106 161 140 128 127 131 157 103 171 118 140 117 115 127 141 141 142 139 141
176 178 185 193 213 224 225 230 240 244 355 268 279 196 236 187 192 203 222 294 296 292 256 87 90 105 287 100 123 147 54 161 133 89 126 130 123 128 131 131 134 133 140 142
167 190 187 208 229 226 281 269 233 198 218 311 291 306 185 217 214 211 221 234 259 256 105 67 77 98 137 80 136 141 188 147 188 167 159 164 142 140 142 137 142 142 140 138
177 188 201 243 256 228 239 190 192 158 89 333 285 25 164 116 186 189 188 199 233 288 83 87 89 71 220 144 136 110 131 152 92 127 133 113 127 136 144 138 141 140 138 140
214 218 231 245 256 296 226 178 77 143 103 242 270 184 133 131 143 122 135 122 70 28 95 67 108 126 249 120 141 147 133 116 116 122 115 111 137 139 137 135 133 133 132 136
226 235 242 284 302 243 230 136 97 147 142 246 260 152 155 179 145 124 53 127 111 32 92 114 102 142 218 117 126 128 122 121 132 145 108 129 125 129 134 135 136 135 136 139
221 286 304 265 197 149 185 125 135 234 261 272 230 182 146 151 91 100 117 15 68 13 85 87 236 143 159 142 154 149 147 153 139 120 118 130 134 138 143 143 144 140 142 145
241 278 192 209 185 146 135 121 272 194 202 222 256 309 129 192 173 97 110 51 80 85 62 177 142 120 101 155 157 150 151 138 135 124 135 140 142 149 153 155 151 147 147 147
230 189 200 129 119 77 97 134 228 200 204 200 214 219 132 125 136 115 20 98 82 110 120 206 152 168 155 151 149 151 153 157 158 154 154 154 148 151 151 152 149 147 147 149
193 159 105 120 124 121 154 260 292 234 167 164 169 136 99 96 97 96 46 93 169 120 140 152 176 173 149 154 151 150 154 159 144 142 145 147 147 148 147 147 148 147 143 129
195 103 122 187 199 149 195 210 173 158 166 167 161 131 99 127 93 81 109 87 82 146 191 209 209 143 155 152 149 146 152 143 137 139 140 139 139 141 145 139 135 126 126 136
153 150 159 182 164 234 239 264 11 27 286 156 145 97 85 100 72 94 85 78 164 161 190 218 161 164 152 151 151 148 150 146 143 143 140 136 130 116 114 125 134 134 137 139
215 215 156 166 148 131 164 205 278 226 243 149 134 87 83 73 100 68 118 147 203 217 209 145 140 150 151 152 155 151 144 140 145 144 138 134 135 133 126 136 142 134 131 137
240 170 140 91 111 132 99 320 276 213 194 250 110 100 105 99 129 160 186 172 204 176 156 123 144 148 151 152 150 148 146 147 146 147 146 143 144 146 143 145 141 143 144 144
277 106 78 106 83 80 83 258 201 178 237 163 130 121 100 125 161 172 184 214 87 121 118 136 148 150 150 146 141 142 143 144 144 142 146 140 141 138 142 147 151 155 151 145